Waarnemingen

Advertentie
Mijn weer
Fehmarn, Duitsland (10055): temperatuur & dauwpunt: 11.10.2017 11:00:00 - 17.10.2017 11:00:00 (CEST)Fehmarn, Duitsland (10055): temperatuur 5cm & temperatuur -5cm: 11.10.2017 11:00:00 - 17.10.2017 11:00:00 (CEST)Fehmarn, Duitsland (10055): temperatuur -20cm & temperatuur -100cm: 11.10.2017 11:00:00 - 17.10.2017 11:00:00 (CEST)Fehmarn, Duitsland (10055): windsnelheid & windstoten: 11.10.2017 11:00:00 - 17.10.2017 11:00:00 (CEST)Fehmarn, Duitsland (10055): windrichting: 11.10.2017 11:00:00 - 17.10.2017 11:00:00 (CEST)Fehmarn, Duitsland (10055): luchtdruk: 11.10.2017 11:00:00 - 17.10.2017 11:00:00 (CEST)Fehmarn, Duitsland (10055): zicht: 11.10.2017 11:00:00 - 17.10.2017 11:00:00 (CEST)Fehmarn, Duitsland (10055): Zonneschijnduur: 11.10.2017 11:00:00 - 17.10.2017 11:00:00 (CEST)Fehmarn, Duitsland (10055): neerslag: 11.10.2017 11:00:00 - 17.10.2017 11:00:00 (CEST)
Datum & Tijd tt [°C] td [°C] tt 5cm [°C] tt -5cm [°C] tt -20cm [°C] tt -100cm [°C] ff [km/u] ff [kn] fx [km/u] fx [kn] dd ppp [hPa] vv [km] sd [min] rr [mm]
17.10.2017 11:00:00 14,9 11,4 14,6 13,2 13,1 13,7 19 10 32 18 WZW 1018,0 19 0 0,0
17.10.2017 10:00:00 15,3 11,9 14,5 12,8 13,1 13,7 23 13 34 19 ZW 1018,1 16 0 0,0
17.10.2017 09:00:00 15,4 12,8 14,1 12,3 13,1 13,7 20 11 31 17 ZW 1017,7 12 0 0,0
17.10.2017 08:00:00 15,6 13,3 14,1 12,2 13,2 13,6 16 9 29 15 ZZW 1017,7 10 0 0,0
17.10.2017 07:00:00 15,8 13,3 14,4 12,5 13,2 13,6 19 11 29 16 ZW 1017,4 11 0 0,0
17.10.2017 06:00:00 15,9 13,3 14,3 12,5 13,2 13,6 19 11 31 17 ZW 1017,4 13 0 0,0
17.10.2017 05:00:00 16,4 13,3 15,2 12,9 13,2 13,6 19 11 31 17 ZW 1017,4 15 0 0,0
17.10.2017 04:00:00 16,9 13,2 15,2 12,7 13,2 13,6 18 10 29 16 ZZW 1017,7 15 0 0,0
17.10.2017 03:00:00 14,9 13,4 13,5 12,1 13,3 13,6 11 6 19 10 Z 1018,0 9 0 0,0
17.10.2017 02:00:00 14,8 14,0 13,4 12,4 13,3 13,6 13 7 23 13 Z 1018,4 6 0 0,0
17.10.2017 01:00:00 15,2 14,1 14,0 12,7 13,4 13,6 17 9 23 12 ZZO 1018,7 6 0 0,0
17.10.2017 00:00:00 13,5 13,3 12,5 12,1 13,5 13,6 13 7 18 10 ZZO 1019,0 2,1 0 0,0
16.10.2017 23:00:00 13,0 12,8 12,2 11,7 13,6 13,6 12 6 17 9 ZO 1019,3 1,4 0 0,0
16.10.2017 22:00:00 12,9 12,7 12,1 11,8 13,8 13,6 12 7 17 9 OZO 1019,6 1,4 0 0,0
16.10.2017 21:00:00 12,9 12,7 12,0 12,0 14,1 13,6 13 7 16 9 ZO 1019,6 1,4 0 0,0
16.10.2017 20:00:00 13,0 12,7 11,4 12,3 14,3 13,6 8 5 11 6 OZO 1020,2 1,3 0 0,0
16.10.2017 19:00:00 14,2 13,6 13,2 13,5 14,4 13,6 8 4 11 6 ZO 1020,0 2,2 0 0,0
16.10.2017 18:00:00 14,1 13,2 13,6 14,2 14,5 13,6 7 4 9 5 O 1019,9 3,2 0 0,0
16.10.2017 17:00:00 15,6 13,6 15,0 15,3 14,4 13,6 5 3 9 5 O 1020,0 4,2 31 0,0
16.10.2017 16:00:00 15,5 13,2 16,0 15,8 14,1 13,6 4 2 10 5 NNW 1020,2 4,8 54 0,0
16.10.2017 15:00:00 15,1 13,5 16,3 16,8 13,9 13,6 6 3 9 5 NNW 1020,5 4,3 1 0,0
16.10.2017 14:00:00 14,5 13,5 15,4 15,4 13,7 13,6 7 4 16 9 WZW 1020,8 3,1 0 0,0
16.10.2017 13:00:00 14,3 13,6 14,8 14,7 13,5 13,6 14 8 25 13 W 1021,0 2,7 0 0,0
16.10.2017 12:00:00 14,3 13,4 14,6 14,4 13,4 13,6 16 9 31 17 W 1020,5 3,1 0 0,0
16.10.2017 11:00:00 14,6 13,2 14,9 14,5 13,2 13,6 27 14 34 18 W 1020,0 3,9 0 0,0
16.10.2017 10:00:00 14,4 13,1 14,5 13,7 13,1 13,5 16 9 27 15 WZW 1019,6 5 0 0,0
16.10.2017 09:00:00 14,1 12,7 13,6 12,3 13,1 13,5 20 11 31 17 ZW 1019,1 6 0 0,0
16.10.2017 08:00:00 14,1 12,5 12,9 11,7 13,2 13,5 21 11 29 16 ZW 1018,5 7 0 0,0
16.10.2017 07:00:00 14,4 12,5 13,2 11,8 13,3 13,5 20 11 30 16 ZW 1018,4 8 0 0,0
16.10.2017 06:00:00 14,6 12,6 13,2 11,9 13,4 13,5 20 11 30 16 ZW 1018,5 10 0 0,0
16.10.2017 05:00:00 15,2 12,6 13,7 12,0 13,5 13,5 21 11 31 17 ZW 1018,5 11 0 0,0
16.10.2017 04:00:00 15,2 12,7 13,7 12,1 13,6 13,5 21 11 31 17 ZW 1018,4 13 0 0,0
16.10.2017 03:00:00 15,1 12,8 13,7 12,1 13,8 13,5 17 9 27 14 ZW 1018,9 14 0 0,0
16.10.2017 02:00:00 15,3 12,9 13,6 12,1 14,0 13,5 14 8 23 12 ZZW 1019,2 15 0 0,0
16.10.2017 01:00:00 14,8 12,7 12,9 12,2 14,1 13,5 11 6 24 13 ZW 1019,4 14 0 0,0
16.10.2017 00:00:00 15,4 13,0 14,1 12,6 14,3 13,5 15 8 30 16 Z 1019,2 15 0 0,0
15.10.2017 23:00:00 16,2 13,5 15,0 13,1 14,5 13,5 19 11 32 18 Z 1019,2 14 0 0,0
15.10.2017 22:00:00 16,3 14,1 14,9 13,3 14,6 13,5 16 9 28 15 Z 1019,7 16 0 0,0
15.10.2017 21:00:00 16,5 14,6 15,3 13,7 14,8 13,5 18 10 26 14 Z 1020,2 16 0 0,0
15.10.2017 20:00:00 16,6 14,7 15,3 13,8 15,0 13,5 16 9 25 13 Z 1020,6 11 0 0,0
15.10.2017 19:00:00 16,1 14,5 15,0 14,1 15,2 13,5 14 8 22 12 Z 1020,7 6 0 0,0
15.10.2017 18:00:00 16,8 14,8 15,8 15,0 15,3 13,5 17 9 24 13 ZZO 1020,8 6 45 0,0
15.10.2017 17:00:00 17,4 14,8 16,8 16,0 15,3 13,5 15 8 24 13 ZZO 1021,2 7 60 0,0
15.10.2017 16:00:00 17,8 14,8 17,9 16,9 15,1 13,4 15 8 21 12 ZZO 1021,9 8 60 0,0
15.10.2017 15:00:00 17,6 14,4 18,4 17,5 14,8 13,4 14 8 23 12 Z 1022,6 9 60 0,0
15.10.2017 14:00:00 16,9 14,0 18,7 17,7 14,4 13,4 14 8 24 13 ZZW 1023,1 8 60 0,0
15.10.2017 13:00:00 15,2 13,7 16,8 17,5 14,0 13,4 15 8 22 12 Z 1023,4 7 21 0,0
15.10.2017 12:00:00 14,4 14,1 15,4 16,3 13,8 13,4 15 8 21 12 Z 1023,9 4,0 0 0,0
15.10.2017 11:00:00 14,0 14,0 14,5 15,2 13,7 13,4 10 6 20 11 Z 1024,3 2,2 0 0,0
15.10.2017 10:00:00 13,8 13,8 14,0 14,3 13,7 13,4 14 7 21 12 ZW 1024,2 2,0 0 0,0
15.10.2017 09:00:00 13,6 13,6 13,6 13,6 13,7 13,4 14 8 24 13 WZW 1024,4 0,5 0 0,0
15.10.2017 08:00:00 14,1 13,7 13,9 13,5 13,7 13,4 21 11 26 14 W 1024,2 2,5 0 0,0
15.10.2017 07:00:00 14,4 13,9 14,2 13,6 13,7 13,4 19 10 32 18 W 1024,0 4,1 0 0,0
15.10.2017 06:00:00 14,6 13,8 14,4 13,7 13,7 13,4 21 11 31 17 W 1023,7 6 0 0,0
15.10.2017 05:00:00 14,6 13,9 14,4 13,7 13,8 13,4 23 12 30 16 W 1023,5 6 0 0,0
15.10.2017 04:00:00 15,0 14,0 14,5 13,7 13,8 13,4 22 12 29 16 WZW 1022,9 8 0 0,0
15.10.2017 03:00:00 14,9 13,9 14,4 13,6 13,8 13,4 18 10 28 15 ZW 1023,0 8 0 0,0
15.10.2017 02:00:00 15,0 14,1 14,7 13,9 13,9 13,4 17 9 29 16 WZW 1022,9 6 0 0,0
15.10.2017 01:00:00 15,0 14,2 14,6 13,9 13,9 13,4 26 14 36 19 WZW 1023,0 8 0 0,0
15.10.2017 00:00:00 14,9 14,1 14,7 14,0 13,9 13,4 29 15 37 20 W 1022,9 9 0 0,0
14.10.2017 23:00:00 15,0 14,2 14,8 14,0 13,9 13,4 27 15 35 19 WZW 1022,9 10 0 0,0
14.10.2017 22:00:00 15,0 14,2 14,7 14,0 14,0 13,4 26 14 32 18 WZW 1022,9 6 0 0,0
14.10.2017 21:00:00 14,9 14,1 14,7 14,0 14,0 13,4 16 8 23 12 WZW 1023,0 8 0 0,0
14.10.2017 20:00:00 14,8 14,2 14,5 13,9 14,1 13,4 12 7 38 21 ZW 1022,8 8 0 0,0
14.10.2017 19:00:00 14,9 14,3 14,6 14,1 14,2 13,4 29 16 44 24 WZW 1022,0 8 0 0,0
14.10.2017 18:00:00 14,7 14,1 14,5 14,3 14,2 13,3 32 18 42 23 W 1022,3 6 0 0,0
14.10.2017 17:00:00 15,0 14,4 14,9 15,0 14,2 13,3 29 16 40 21 WZW 1021,8 3,7 0 0,0
14.10.2017 16:00:00 15,1 14,4 15,5 15,4 14,2 13,3 31 17 37 20 W 1021,5 4,6 0 0,0
14.10.2017 15:00:00 15,2 14,5 15,7 15,6 14,1 13,3 30 16 39 21 WZW 1021,2 7 0 0,0
14.10.2017 14:00:00 15,2 14,6 15,6 15,7 14,0 13,3 29 15 34 19 WZW 1021,4 9 0 0,0
14.10.2017 13:00:00 15,6 14,7 16,4 16,6 13,7 13,3 27 15 36 19 WZW 1021,4 11 0 0,0
14.10.2017 12:00:00 15,2 14,4 15,9 15,4 13,5 13,3 23 13 35 19 WZW 1021,3 8 0 0,0
14.10.2017 11:00:00 15,0 14,3 15,1 14,5 13,4 13,3 24 13 32 17 WZW 1021,1 7 0 0,0
14.10.2017 10:00:00 15,0 14,2 14,8 14,0 13,4 13,3 22 12 31 17 WZW 1020,7 6 0 0,0
14.10.2017 09:00:00 15,2 14,1 15,0 14,0 13,3 13,3 23 12 30 16 WZW 1020,2 7 0 0,0
14.10.2017 08:00:00 15,1 14,1 14,8 13,7 13,3 13,3 22 12 34 18 WZW 1019,9 8 0 0,0
14.10.2017 07:00:00 15,0 14,1 14,3 13,5 13,3 13,3 22 12 32 18 WZW 1019,6 7 0 0,0
14.10.2017 06:00:00 15,1 14,0 14,8 13,7 13,3 13,3 25 14 34 18 WZW 1020,0 6 0 0,0
14.10.2017 05:00:00 15,2 14,1 14,7 13,6 13,3 13,3 24 13 35 19 WZW 1019,6 7 0 0,0
14.10.2017 04:00:00 15,2 14,0 14,7 13,5 13,2 13,3 24 13 38 21 WZW 1019,8 6 0 0,0
14.10.2017 03:00:00 15,0 13,8 14,7 13,6 13,2 13,3 22 12 35 19 WZW 1019,9 6 0 0,0
14.10.2017 02:00:00 14,9 13,7 14,6 13,5 13,2 13,3 20 11 33 18 ZW 1020,1 7 0 0,0
14.10.2017 01:00:00 14,8 13,6 14,4 13,4 13,2 13,3 20 11 32 17 ZW 1020,3 7 0 0,0
14.10.2017 00:00:00 14,7 13,2 14,4 13,3 13,2 13,3 19 10 34 18 ZW 1020,4 8 0 0,0
13.10.2017 23:00:00 15,0 12,7 14,6 13,2 13,2 13,3 22 12 35 19 ZW 1020,6 12 0 0,0
13.10.2017 22:00:00 15,0 12,4 14,5 13,1 13,2 13,3 18 10 29 16 ZW 1021,1 13 0 0,0
13.10.2017 21:00:00 14,7 12,0 14,3 13,0 13,3 13,3 19 10 31 17 ZW 1021,1 15 0 0,0
13.10.2017 20:00:00 14,6 11,7 14,1 13,0 13,4 13,3 15 8 29 16 ZZW 1021,2 16 0 0,0
13.10.2017 19:00:00 14,6 11,7 14,1 13,1 13,5 13,3 16 8 27 15 ZW 1021,1 17 0 0,0
13.10.2017 18:00:00 14,8 11,3 14,4 13,6 13,5 13,4 17 9 29 16 ZW 1021,1 18 0 0,0
13.10.2017 17:00:00 14,8 11,5 14,9 14,4 13,4 13,4 16 8 27 15 ZW 1021,2 19 36 0,0
13.10.2017 16:00:00 14,8 11,7 15,3 14,8 13,2 13,4 17 9 27 15 ZW 1021,4 17 47 0,0
13.10.2017 15:00:00 14,3 11,6 15,5 14,6 13,0 13,4 16 8 30 16 WZW 1021,5 12 60 0,0
13.10.2017 14:00:00 13,6 11,4 15,1 14,9 12,6 13,4 24 13 32 18 WZW 1021,6 12 39 0,0
13.10.2017 13:00:00 13,5 11,3 14,7 15,2 12,2 13,4 16 8 26 14 ZW 1021,7 11 36 0,0
13.10.2017 12:00:00 13,3 10,7 15,0 14,6 11,8 13,4 16 9 28 15 WZW 1021,7 16 55 0,0
13.10.2017 11:00:00 12,2 10,3 13,7 12,8 11,6 13,4 19 10 32 17 ZW 1021,3 18 60 0,0
13.10.2017 10:00:00 11,9 10,5 12,2 11,2 11,5 13,4 26 14 38 20 WZW 1021,2 13 4 0,0
13.10.2017 09:00:00 11,6 10,4 11,0 10,5 11,6 13,4 28 15 39 21 WZW 1020,7 14 0 0,0
13.10.2017 08:00:00 11,5 10,3 10,6 10,2 11,6 13,4 27 15 38 20 WZW 1020,2 14 0 0,0
13.10.2017 07:00:00 12,0 10,7 10,9 10,1 11,7 13,4 27 15 35 19 WZW 1019,6 14 0 0,0
13.10.2017 06:00:00 12,8 10,6 11,9 10,6 11,8 13,4 33 18 40 22 W 1019,5 16 0 0,0
13.10.2017 05:00:00 13,0 10,8 12,4 11,0 11,8 13,4 35 19 45 24 W 1019,4 15 0 0,0
13.10.2017 04:00:00 13,1 10,7 12,6 11,0 11,8 13,4 35 19 46 25 W 1018,9 15 0 0,0
13.10.2017 03:00:00 13,0 10,8 12,2 10,9 11,9 13,4 33 18 48 26 W 1018,6 18 0 0,0
13.10.2017 02:00:00 13,1 9,9 12,6 11,0 11,9 13,4 38 21 50 27 W 1018,0 22 0 0,0
13.10.2017 01:00:00 13,1 10,3 12,5 10,9 11,9 13,4 37 20 51 28 W 1017,4 18 0 0,0
13.10.2017 00:00:00 13,1 10,2 12,5 10,8 12,0 13,4 40 22 53 29 W 1017,2 21 0 0,0
12.10.2017 23:00:00 13,1 10,1 12,5 10,8 12,0 13,4 41 22 57 31 W 1017,0 20 0 0,0
12.10.2017 22:00:00 13,1 10,2 12,4 10,8 12,1 13,3 46 25 63 34 W 1016,4 22 0 0,0
12.10.2017 21:00:00 13,2 9,8 12,5 10,7 12,2 13,3 48 26 69 38 W 1015,8 20 0 0,0
12.10.2017 20:00:00 13,4 9,5 12,7 10,8 12,3 13,3 57 31 77 41 W 1015,2 20 0 0,0
12.10.2017 19:00:00 13,5 9,5 12,9 10,9 12,5 13,3 56 30 83 45 W 1014,7 19 0 0,0
12.10.2017 18:00:00 13,7 9,1 13,1 11,2 12,6 13,3 57 31 74 40 W 1013,9 23 5 0,0
12.10.2017 17:00:00 13,6 9,2 13,2 11,6 12,7 13,3 62 34 80 43 W 1013,1 13 12 0,0
12.10.2017 16:00:00 13,6 9,3 13,1 11,7 12,8 13,3 56 31 80 43 W 1012,6 19 21 0,0
12.10.2017 15:00:00 13,9 8,8 14,0 12,4 12,8 13,3 52 28 69 38 W 1011,9 14 37 0,0
12.10.2017 14:00:00 13,7 8,6 13,6 12,4 12,7 13,3 57 31 81 44 W 1010,9 11 49 0,0
12.10.2017 13:00:00 14,0 9,5 14,2 13,1 12,5 13,3 61 33 80 43 W 1009,7 8 50 0,0
12.10.2017 12:00:00 13,8 10,7 15,0 13,5 12,3 13,3 56 30 72 39 W 1008,2 14 34 0,0
12.10.2017 11:00:00 13,1 10,0 12,8 11,9 12,3 13,3 60 33 77 42 W 1007,3 11 37 0,2
12.10.2017 10:00:00 13,2 10,2 12,1 12,2 12,2 13,3 57 31 79 43 W 1006,3 10 0 0,1
12.10.2017 09:00:00 13,7 10,7 13,0 11,5 12,3 13,3 49 26 63 34 WZW 1005,9 18 11 0,0
12.10.2017 08:00:00 13,8 11,0 12,7 11,1 12,4 13,3 48 26 63 34 WZW 1004,8 21 0 0,0
12.10.2017 07:00:00 13,9 11,2 12,8 11,4 12,4 13,3 43 23 58 32 WZW 1004,4 26 0 0,0
12.10.2017 06:00:00 13,6 11,7 12,8 11,8 12,5 13,3 34 18 54 29 ZW 1004,3 25 0 0,0
12.10.2017 05:00:00 13,1 11,7 12,4 11,9 12,5 13,3 33 18 51 28 ZW 1004,6 15 0 0,1
12.10.2017 04:00:00 13,7 10,5 13,0 11,6 12,6 13,3 26 14 43 23 ZW 1005,0 23 0 0,0
12.10.2017 03:00:00 13,7 10,2 13,1 11,7 12,7 13,3 26 14 48 26 ZW 1006,0 26 0 0,0
12.10.2017 02:00:00 13,7 10,4 12,9 11,8 12,8 13,3 29 16 50 27 ZW 1006,9 24 0 0,0
12.10.2017 01:00:00 13,9 10,7 12,9 11,8 12,9 13,3 27 14 45 25 ZW 1007,7 22 0 0,0
12.10.2017 00:00:00 14,1 11,1 13,1 12,2 12,9 13,3 25 14 40 22 ZW 1008,3 28 0 0,0
11.10.2017 23:00:00 14,2 11,5 13,3 12,4 13,0 13,3 25 14 42 23 ZW 1008,8 22 0 0,0
11.10.2017 22:00:00 14,1 12,1 13,0 12,6 13,1 13,3 23 13 42 23 ZW 1009,1 20 0 0,0
11.10.2017 21:00:00 13,8 12,7 13,0 12,8 13,2 13,3 26 14 48 26 ZW 1009,4 11 0 0,1
11.10.2017 20:00:00 14,2 12,9 13,5 13,1 13,2 13,3 25 13 36 19 ZW 1009,4 9 0 0,0
11.10.2017 19:00:00 14,1 13,3 13,5 13,2 13,3 13,3 25 13 43 23 WZW 1009,3 7 0 0,0
11.10.2017 18:00:00 14,6 13,1 13,8 13,5 13,3 13,3 22 12 41 22 WZW 1009,3 19 0 0,0
11.10.2017 17:00:00 14,6 13,9 14,0 13,9 13,3 13,3 32 17 53 29 WZW 1009,1 18 0 0,0
11.10.2017 16:00:00 14,3 13,9 14,1 14,3 13,2 13,3 31 17 39 21 WZW 1009,1 17 0 0,0
11.10.2017 15:00:00 14,1 13,9 14,0 14,5 13,1 13,3 16 9 29 16 ZW 1009,2 4,0 0 0,5
11.10.2017 14:00:00 13,8 12,9 13,4 14,0 13,1 13,3 27 15 39 21 WZW 1009,5 3,6 0 0,0
11.10.2017 13:00:00 14,4 12,6 13,9 14,1 13,0 13,3 21 11 31 17 WZW 1009,7 9 0 0,0
11.10.2017 12:00:00 14,5 12,3 14,5 14,9 12,7 13,3 24 13 35 19 WZW 1009,4 16 14 0,0
11.10.2017 11:00:00 14,5 12,6 15,0 14,4 12,4 13,3 21 11 35 19 WZW 1009,2 15 10 0,0

tt = temperatuur
td = dauwpunt
tt 5cm = temperatuur 5cm
tt -5cm = temperatuur -5cm
tt -20cm = temperatuur -20cm
tt -100cm = temperatuur -100cm
ff = windsnelheid
fx = windstoten
dd = windrichting
ppp = luchtdruk
vv = zicht
sd = Zonneschijnduur
rr = neerslag

Weerstations in de omgeving